Location: Lafig�re
(44.4503°N, 4.0357°E)
Time: 15:33:05
(UTC+00:00)

ARGOS - Pass Details

Date: 30 January 2021
Orbit: 821 x 834 km, 98.4° (Epoch: 05 March)

Event Time Altitude Azimuth Distance (km) Brightness Sun altitude
Rises 19:23:58 0° 186° (S) 3,342 6.4 -27.5°
Reaches altitude 10° 19:26:26 10° 193° (SSW) 2,415 5.7 -27.9°
Maximum altitude 19:31:27 40° 262° (W) 1,198 4.4 -28.8°
Drops below altitude 10° 19:36:31 10° 332° (NNW) 2,439 5.9 -29.7°
Sets 19:39:02 0° 340° (NNW) 3,379 6.6 -30.2°
